Tracking 25734 objects as of 26-May-2022
HD Live streaming from Space Station
objects crossing your sky now

COSMOS 2251 DEB

Track COSMOS 2251 DEB now!
10-day predictions


NORAD ID: 36632
Int'l Code: 1993-036BEW
Perigee: 755.6 km
Apogee: 813.9 km
Inclination: 74.0 °
Period: 100.4 minutes
Semi major axis: 7155 km
RCS: 0.0009 m2 (small)
Launch date: June 16, 1993
Source: Commonwealth of Independent States (former USSR) (CIS)
Launch site: PLESETSK MISSILE AND SPACE COMPLEX (PKMTR)

Note: This is SATELLITE DEBRIS
aabbcc
Your satellite tracking list
Your tracking list is empty




NASA's NSSDC Master Catalog

Two Line Element Set (TLE):
1 36632U 93036BEW 22145.74436779  .00001369  00000-0  49284-3 0  9991
2 36632  74.0035 166.1807 0040744 224.1864 135.6032 14.34233752465713
Source of the keplerian elements: AFSPC